Regional Weather Roundup
Issued by NWS

Home | Current Version | Previous Version | Text Only | Print | Product List | Glossary Off
Versions: 1 2 3 4 5 6 7 8 9 10 11 12 13 14 15 16 17 18 19 20 21 22 23 24 25 26 27 28 29 30 31 32 33 34 35 36 37 38 39 40 41 42 43 44 45 46 47 48 49 50

291
ASUS43 KLOT 161012
RWRIL

ILLINOIS REGIONAL WEATHER ROUNDUP
NATIONAL WEATHER SERVICE CHICAGO/ROMEOVILLE IL
400 AM CST MON JAN 16 2017

NOTE: "FAIR" INDICATES FEW OR NO CLOUDS BELOW 12,000 FEET WITH NO
SIGNIFICANT WEATHER AND/OR OBSTRUCTIONS TO VISIBILITY.

* THESE STATIONS ARE NOT UNDER NWS QUALITY CONTROL. THEY ALSO MAY NOT
  REPORT WEATHER SUCH AS PRECIPITATION OR FOG.

ILZ001-002-007-009-015-016-024-161100-
NORTHWEST ILLINOIS

CITY           SKY/WX    TMP DP  RH WIND       PRES   REMARKS
MOLINE         MIX PCPN  32  29  88 E9        30.22F FOG     WCI  24
STERLING*      MIX PCPN  31  30  96 E9        30.24F FOG     WCI  23
SAVANNA*       RAIN      32  30  93 E6        30.25F WCI  26
$$

ILZ003-004-008-010-011-017-018-161100-
NORTH CENTRAL ILLINOIS

CITY           SKY/WX    TMP DP  RH WIND       PRES   REMARKS
ROCKFORD       FRZ RAIN  32  28  85 S6        30.27F FOG     WCI  26
FREEPORT*      MIX PCPN  31  29  92 SE3       30.27F
ROCHELLE*      LGT RAIN  32  30  94 E6        30.26F WCI  26
DE KALB*       MIX PCPN  32  29  89 E5        30.26F WCI  27
$$

ILZ005-006-012>014-019>023-161100-
NORTHEAST ILLINOIS

CITY           SKY/WX    TMP DP  RH WIND       PRES   REMARKS
CHICAGO-OHARE  LGTSLEET  32  29  88 CALM      30.27S
CHICAGO-MIDWAY CLOUDY    34  26  72 CALM      30.28S
AURORA         CLOUDY    33  28  81 SE3       30.27F HAZE
LANSING*       CLOUDY    32  31  96 SE3       30.27F
JOLIET*        CLOUDY    34  31  86 E3        30.27F
WAUKEGAN       CLOUDY    28  25  88 CALM      30.27S FOG
DUPAGE AIRPORT FRZ RAIN  33  27  78 SE3       30.26F
KANKAKEE*      CLOUDY    33  30  88 CALM      30.27F
WHEELING       MIX PCPN  32  26  78 CALM      30.29S
MORRIS*        CLOUDY    33  30  90 E5        30.26F WCI  28
ROMEOVILLE*    CLOUDY    32  31  96 E3        30.27F
NORTHERLY ISL    N/A     32  29  89 SE1         N/A
$$

LMZ740>746-161100-
SOUTHERN LAKE MICHIGAN

STATION/POSITION SKY/WX   TEMP    WIND        PRES    VSBY  WAVE
                          AIR SEA DIR/SP/G                  HT/PER
                          (F)     (DEG/KT/KT) (MB)    (MI)  (FT/S)
HARRISON CRIB              33     160/  6/  6   N/A
BURNHAM HARBOR             32      CALM  /  3   N/A
CALUMET HARBOR             33     170/  4/  5 1024.9S
BURNS HARBOR               33     180/  3/  6 1026.1S
MICHIGAN CITY              32     130/  4/  4   N/A
$$

ILZ025>027-034>036-040-047-049-050-058-095>099-161100-
WEST-CENTRAL ILLINOIS

CITY           SKY/WX    TMP DP  RH WIND       PRES   REMARKS
QUINCY         FOG       33  33 100 E7        30.15S VSB 1/4 WCI  27
GALESBURG*     CLOUDY    32  32 100 E5        30.21S FOG     WCI  27
MACOMB*        FOG       32  32 100 E7        30.21F VSB 1/4 WCI  26
JACKSONVILLE*  FOG       33  33  99 E6        30.20R VSB 1   WCI  27
PITTSFIELD*    FOG       33  33 100 NE6       30.17F VSB 1/4 WCI  28
$$

ILZ028>032-037-038-041>044-048-051>054-059>061-161100-
CENTRAL ILLINOIS

CITY           SKY/WX    TMP DP  RH WIND       PRES   REMARKS
PONTIAC        CLOUDY    33  33 100 E9        30.24F FOG     WCI  26
BLOOMINGTON    FOG       32  32 100 E9        30.22F VSB 1   WCI  24
DECATUR        CLOUDY    34  34 100 E7        30.22F FOG     WCI  28
PEORIA         CLOUDY    33  32  96 E8        30.21F FOG     WCI  26
LACON*         CLOUDY    32  32  99 E3        30.22F FOG
LINCOLN*       CLOUDY    34  34 100 E7        30.21F FOG     WCI  28
SPRINGFIELD    CLOUDY    35  34  96 E5        30.21S FOG     WCI  31
TAYLORVILLE    FOG       34  33  99 E7        30.20F VSB 1   WCI  28
$$

ILZ033-039-045-046-055>057-062-063-161100-
EAST-CENTRAL ILLINOIS

CITY           SKY/WX    TMP DP  RH WIND       PRES   REMARKS
CHAMPAIGN      CLOUDY    34  32  92 E9        30.22F FOG     WCI  27
RANTOUL*       CLOUDY    35  34  96 E5        30.22F FOG     WCI  31
MATTOON        CLOUDY    36  35  96 SE6       30.20F FOG     WCI  31
PARIS*         CLOUDY    34  34  99 E3        30.24F FOG
$$

ILZ079-100>102-161100-
SOUTHWEST ILLINOIS

CITY           SKY/WX    TMP DP  RH WIND       PRES   REMARKS
ALTON          FOG       37  37 100 E3        30.18F VSB 1/2
BELLEVILLE     CLOUDY    39  39 100 CALM      30.17S FOG
CAHOKIA*       FOG       39  37  92 E5        30.17F VSB 1
SPARTA*        CLOUDY    39  39  99 E6        30.18F FOG     WCI  35
$$

ILZ064>066-069>071-074>076-080>082-084>086-088>090-092>094-161100-
SOUTH-CENTRAL ILLINOIS

CITY           SKY/WX    TMP DP  RH WIND       PRES   REMARKS
CARBONDALE     CLOUDY    40  40 100 E3        30.18F FOG
CAIRO*         FOG       42  42 100 NE6       30.17F VSB 1/2
EFFINGHAM*     FOG       38  38 100 E8        30.23S VSB 3/4 WCI  32
MARION         CLOUDY    43  43 100 CALM      30.19F FOG
MT. VERNON     CLOUDY    40  40 100 E5        30.21S FOG
CENTRALIA*     FOG       40  40 100 E3        30.19S VSB 1
SALEM*         FOG       40  39  95 CALM      30.20F VSB 3/4
METROPOLIS*    FOG       44  43  99 CALM      30.19F VSB 1/4
$$

ILZ067-068-072-073-078-083-087-091-161100-
SOUTHEAST ILLINOIS

CITY           SKY/WX    TMP DP  RH WIND       PRES   REMARKS
LAWRENCEVILLE  CLOUDY    39  39 100 E6        30.23F FOG     WCI  35
FLORA*         FOG       40  39  98 E3        30.22S VSB 3/4
FAIRFIELD*     CLOUDY    40  40 100 CALM      30.21R FOG
HARRISBURG*    FOG       42  42 100 E6        30.22R VSB 1/2
ROBINSON*      CLOUDY    37  37  98 E3        30.24F FOG
CARMI*         CLOUDY    41  41 100 E5        30.21S FOG
$$

ABBREVIATIONS USED IN REMARKS
   TC - TEMPERATURE IN CELSIUS
  WCI - WIND CHILL INDEX
   HX - HEAT INDEX
  VSB - VISIBILITY
$$





USA.gov is the U.S. government's official web portal to all federal, state and local government web resources and services.